Location: Branche des Alpilles
(43.6087°N, 4.6976°E)
Time: 04:51:47
(UTC+00:00)

NOAA 12 - Pass Details

Date: 30 November 2020
Orbit: 795 x 815 km, 98.5° (Epoch: 27 January)

Event Time Altitude Azimuth Distance (km) Brightness Sun altitude
Rises 16:36:05 0° 150° (SSE) 3,328 7.2 -5.7°
Reaches altitude 10° 16:38:27 10° 145° (SE) 2,400 6.5 -6.1°
Maximum altitude 16:43:36 52° 71° (ENE) 1,009 4.3 -6.9°
Drops below altitude 10° 16:48:45 10° 356° (N) 2,409 6.4 -7.8°
Sets 16:51:08 0° 352° (N) 3,342 7.2 -8.2°
